#timestamp,LO_Frequency,Hit 
1504839615.7,286047003.8,N
1504839635.5,286047004.7,N
1504839655.4,286047001.4,N
1504839675.2,286047002.5,N
1504839695.0,286047000.3,N
1504839695.9,286047000.3,N
1504839715.7,286046998.4,N
1504839735.6,286047000.7,N
1504839755.4,286047001.2,N
1504839775.2,286046999.2,N
1504839795.1,286046996.2,N
1504839796.0,286046996.2,N
1504839815.8,286046995.7,N
1504839835.6,286047000.8,N
1504839855.5,286047002.6,N
1504839875.3,286047002.3,N
1504839895.1,286047004.0,N
1504839915.9,286047002.7,N
1504839935.7,286046999.9,N
1504839955.5,286046999.4,N
1504839975.4,286046998.9,N
1504839995.2,286047004.2,N
1504840015.0,286047001.7,N
1504840015.9,286047001.7,N
1504840035.7,286046996.0,N
1504840055.6,286046999.1,N
1504840075.4,286047001.3,N
1504840095.2,286047002.3,N
1504840115.1,286047001.6,N
1504840116.0,286047001.6,N
1504840135.8,286046993.5,N
1504840155.6,286046997.1,N
1504840175.5,286046996.5,N
1504840195.3,286046997.1,N
1504840215.1,286046998.4,N
1504840235.9,286046998.1,N
1504840255.7,286046999.9,N
1504840275.5,286046995.8,N
1504840295.4,286046999.4,N
1504840315.2,286047000.9,N
1504840335.0,286046997.6,N
1504840335.9,286046997.6,N
1504840355.8,286046997.2,N
1504840375.6,286047003.9,N
1504840395.4,286047006.0,N
1504840415.2,286047005.6,N
1504840435.1,286047005.2,N
1504840436.0,286047005.2,N
1504840455.8,286047005.2,N
1504840475.6,286047001.7,N
1504840495.5,286047004.4,N
1504840515.3,286047003.2,N
1504840535.1,286046998.8,N
1504840555.9,286046998.5,N
1504840575.7,286047002.0,N
1504840595.5,286047001.4,N
1504840615.4,286047003.9,N
1504840635.2,286047003.5,N
1504840655.0,286047002.0,N
1504840655.9,286047002.0,N
1504840675.8,286047003.3,N
1504840695.6,286047007.3,N
1504840715.4,286047006.3,N
1504840735.3,286047004.6,N
1504840755.1,286047002.9,N
1504840756.0,286047002.9,N
1504840775.8,286047004.5,N
1504840795.7,286047002.2,N
1504840815.5,286047004.2,N
1504840835.3,286047005.8,N
1504840855.1,286047005.5,N
1504840875.9,286047004.5,N
1504840895.7,286047008.2,P
1504840915.6,286047006.9,N
1504840935.4,286047008.3,P
1504840955.2,286047002.6,N
1504840975.0,286047003.1,N
1504840975.9,286047003.1,N
1504840995.8,286047003.1,N
1504841015.6,286047004.0,N
1504841035.4,286047005.7,N
1504841055.3,286047005.3,N
1504841075.1,286047006.8,P
1504841095.8,286046999.9,N
1504841115.7,286047002.3,N
1504841135.5,286047002.9,N
1504841155.3,286047004.2,N
1504841175.2,286047003.5,N
1504841195.9,286047003.3,N
1504841215.7,286047004.2,N
1504841235.6,286047004.8,N
1504841255.4,286047002.3,N
1504841275.2,286047000.7,N
1504841295.1,286047001.3,N
1504841296.0,286047001.3,N
1504841315.8,286047001.7,N
1504841335.6,286047002.9,N
1504841355.5,286047001.3,N
1504841375.3,286047001.6,N
1504841395.1,286047000.6,N
1504841415.8,286047003.0,N
1504841435.7,286047003.1,N
1504841455.5,286047006.8,P
1504841475.4,286047004.2,N
1504841495.2,286047003.6,N
1504841515.0,286047003.3,N
1504841515.9,286047003.3,N
1504841535.7,286047003.6,N
1504841555.6,286047004.4,P
1504841575.4,286046995.7,P
1504841595.2,286046995.6,N
1504841615.1,286046999.1,N
1504841616.0,286046999.1,N
1504841635.8,286046997.0,N
1504841655.6,286046998.1,N
1504841675.5,286046998.1,N
1504841695.3,286046999.6,N
1504841715.1,286046996.4,N
1504841735.9,286046998.0,N
1504841755.7,286046993.9,N
1504841775.5,286046995.4,N
1504841795.4,286046999.5,N
1504841815.2,286046999.0,N
1504841835.0,286046998.8,N
1504841835.9,286046998.8,N
1504841855.8,286047000.6,N
1504841875.6,286046997.3,N
1504841895.4,286046998.8,N
1504841915.2,286046998.4,N
1504841935.1,286046996.6,N
1504841936.0,286046996.6,N
1504841955.8,286047000.6,N
1504841975.6,286047000.0,N
1504841995.5,286046995.9,N
1504842015.3,286046994.6,N
1504842035.1,286046997.7,N
1504842055.9,286046998.9,N
1504842075.7,286046999.8,N
1504842095.5,286047001.9,N
1504842115.4,286047005.8,P
1504842135.2,286047007.2,N
1504842155.0,286047004.5,N
1504842155.9,286047004.5,N
1504842175.8,286047004.0,N
1504842195.6,286047003.2,N
1504842215.4,286047003.2,N
1504842235.3,286047003.2,N
1504842255.1,286047000.7,N
1504842256.0,286047000.7,N
1504842275.8,286047002.1,N
1504842295.6,286047001.1,N
1504842315.5,286047002.4,N
1504842335.3,286046995.2,N
1504842355.1,286046997.4,N
1504842375.9,286046998.3,N
1504842395.7,286046996.9,N
1504842415.5,286046996.5,N
1504842435.4,286046996.9,N
1504842455.2,286047001.2,N
1504842475.0,286047001.9,N
1504842475.9,286047001.9,N
1504842495.8,286047000.1,N
1504842515.6,286047002.6,N
1504842535.4,286047002.6,N
1504842555.3,286047001.5,N
1504842575.1,286047002.4,N
1504842576.0,286047002.4,N
1504842595.8,286047000.1,N
1504842615.7,286047000.1,N
1504842635.5,286047004.2,N
1504842655.3,286047003.3,N
1504842675.1,286047004.5,N
1504842695.9,286047004.6,N
1504842715.7,286047005.1,N
1504842735.5,286047007.6,N
1504842755.4,286047005.3,N
1504842775.2,286047008.8,P
1504842795.0,286047005.1,N
1504842796.0,286047005.1,N
1504842815.8,286047001.4,N
1504842835.6,286047003.7,N
1504842855.4,286047004.1,N
1504842875.3,286047001.8,N
1504842895.1,286046998.7,N
1504842915.8,286046999.6,N
1504842935.7,286046997.0,N
1504842955.5,286047000.0,N
1504842975.3,286046999.9,N
1504842995.2,286047000.4,N
1504843015.9,286047002.5,N
1504843035.7,286047002.3,N
1504843055.6,286047002.8,N
1504843075.4,286047000.3,N
1504843095.2,286047000.3,N
1504843115.0,286047004.1,N
1504843115.9,286047004.1,N
1504843135.8,286047002.9,N
1504843155.6,286047007.6,N
1504843175.4,286047007.4,N
1504843195.3,286047008.8,P
